#timestamp,LO_Frequency,Hit,StdDev 
1691665215.3,286047000.9,P
1691665235.1,286046998.5,N
1691665255.9,286047001.1,N
1691665275.7,286046998.5,N
1691665295.5,286046998.3,N
1691665315.4,286046996.5,Y
1691665335.2,286047001.2,P
1691665355.1,286046998.4,N
1691665356.0,286046998.4,N
1691665375.8,286046999.4,N
1691665395.6,286046998.9,N
1691665415.5,286046999.0,N
1691665435.3,286046999.3,N
1691665455.2,286046998.5,N
1691665475.9,286047000.4,N
1691665495.7,286046998.5,N
1691665515.6,286046998.7,N
1691665535.4,286046998.7,N
1691665555.2,286046999.0,N
1691665575.1,286046996.7,Y
1691665576.0,286046996.7,P
1691665595.8,286046998.6,N
1691665615.7,286046998.6,N
1691665635.5,286046998.3,N
1691665655.3,286046999.1,N
1691665675.2,286046996.8,Y
1691665695.0,286046999.0,P
1691665695.9,286046999.0,P
1691665715.7,286047000.9,P
1691665735.6,286047001.0,N
1691665755.4,286046998.6,N
1691665775.3,286046998.5,N
1691665795.1,286046998.3,N
1691665796.0,286046998.3,N
1691665815.8,286046998.6,N
1691665835.7,286046998.4,N
1691665855.5,286046998.5,N
1691665875.3,286047001.2,N
1691665895.2,286046998.9,N
1691665915.0,286046998.6,N
1691665915.9,286046998.6,N
1691665935.8,286047000.8,N
1691665955.6,286047001.1,N
1691665975.4,286047000.5,N
1691665995.3,286046998.2,N
1691666015.1,286046998.6,N
1691666035.8,286046998.3,N
1691666055.7,286047002.7,N
1691666075.5,286047000.8,N
1691666095.4,286047001.0,N
1691666115.2,286047000.1,N
1691666135.0,286047000.4,N
1691666136.0,286047000.4,N
1691666155.8,286047000.2,N
1691666175.6,286047000.1,N
1691666195.5,286046999.8,N
1691666215.3,286047000.2,N
1691666235.1,286047000.2,N
1691666255.9,286047002.5,N
1691666275.7,286047002.0,N
1691666295.5,286047002.0,N
1691666315.4,286047001.8,N
1691666335.2,286047001.8,N
1691666355.1,286047004.4,Y
1691666356.0,286047004.4,P
1691666375.8,286047002.0,N
1691666395.6,286047001.9,N
1691666415.5,286047001.9,N
1691666435.3,286047002.5,N
1691666455.2,286046999.7,N
1691666475.9,286047000.1,N
1691666495.7,286047000.1,N
1691666515.6,286047000.6,N
1691666535.4,286047000.0,N
1691666555.2,286047000.8,N
1691666575.1,286047000.4,N
1691666576.0,286047000.4,N
1691666595.8,286047001.0,N
1691666615.7,286046998.4,N
1691666635.5,286047001.0,N
1691666655.3,286046998.2,N
1691666675.2,286047000.7,N
1691666695.0,286047001.2,N
1691666695.9,286047001.2,N
1691666715.8,286046999.7,N
1691666735.6,286046999.7,N
1691666755.4,286047000.4,N
1691666775.3,286047000.6,N
1691666795.1,286047001.2,N
1691666815.8,286046998.4,N
1691666835.7,286046998.2,N
1691666855.5,286046997.4,N
1691666875.4,286046996.9,N
1691666895.2,286046999.1,N
1691666915.0,286046999.5,N
1691666915.9,286046999.5,N
1691666935.8,286046999.2,N
1691666955.6,286046999.4,N
1691666975.4,286046996.7,N
1691666995.3,286046996.7,N
1691667015.1,286046996.9,N
1691667035.9,286046999.6,N
1691667055.7,286046999.0,N
1691667075.5,286047001.2,N
1691667095.4,286046999.0,N
1691667115.2,286046998.1,N
1691667135.0,286046998.6,N
1691667135.9,286046998.6,N
1691667155.8,286046998.4,N
1691667175.6,286046999.4,N
1691667195.5,286046999.5,N
1691667215.3,286046998.9,N
1691667235.1,286046998.4,N
1691667255.9,286046998.8,N
1691667275.7,286046998.3,N
1691667295.5,286047001.2,N
1691667315.4,286046998.9,N
1691667335.2,286046999.1,N
1691667355.0,286046999.2,N
1691667356.0,286046999.2,N
1691667375.8,286046998.8,N
1691667395.6,286046998.1,N
1691667415.5,286046998.2,N
1691667435.3,286047001.1,N
1691667455.2,286047000.5,N
1691667475.9,286047000.2,N
1691667495.7,286046999.9,N
1691667515.6,286047000.1,N
1691667535.4,286046999.7,N
1691667555.2,286047002.7,N
1691667575.1,286047002.2,N
1691667576.0,286047002.2,N
1691667595.8,286047001.8,N
1691667615.7,286047004.2,Y
1691667635.5,286047001.3,P
1691667655.3,286047001.3,N
1691667675.2,286047004.2,P
1691667695.0,286047004.0,N
1691667695.9,286047004.0,N
1691667715.8,286047004.0,N
1691667735.6,286047004.4,N
1691667755.4,286047003.7,N
1691667775.3,286047003.5,N
1691667795.1,286047003.5,N
1691667796.0,286047003.5,N
1691667815.8,286047003.3,N
1691667835.7,286047004.0,N
1691667855.5,286047004.0,N
1691667875.4,286047003.9,N
1691667895.2,286047003.8,N
1691667915.0,286047003.8,Y
1691667915.9,286047003.8,P
1691667935.8,286047000.9,P
1691667955.6,286047000.2,N
1691667975.4,286047002.5,N
1691667995.3,286047004.0,N
1691668015.1,286047001.5,N
1691668035.9,286047001.5,N
1691668055.7,286047002.5,N
1691668075.5,286047001.8,N
1691668095.4,286047002.3,N
1691668115.2,286047001.6,N
1691668135.1,286047003.6,Y
1691668136.0,286047003.6,P
1691668155.8,286047002.6,P
1691668175.6,286047002.1,P
1691668195.5,286047000.1,N
1691668215.3,286047000.6,N
1691668235.1,286047000.2,N
1691668255.9,286047000.1,N
1691668275.7,286047001.9,N
1691668295.6,286046999.9,N
1691668315.4,286046999.9,N
1691668335.2,286046999.7,N
1691668355.1,286046998.6,N
1691668356.0,286046998.6,N
1691668375.8,286047000.9,N
1691668395.6,286047000.8,N
1691668415.5,286047000.2,N
1691668435.3,286047002.4,N
1691668455.2,286046999.9,N
1691668475.9,286047002.3,N
1691668495.7,286046999.9,N
1691668515.6,286047000.7,N
1691668535.4,286047000.3,N
1691668555.3,286047002.3,N
1691668575.1,286047002.8,N
1691668595.8,286047002.8,N
1691668615.7,286047002.2,N
1691668635.5,286047002.5,N
1691668655.4,286047004.4,Y
1691668675.2,286047001.6,P
1691668695.0,286047001.9,P
1691668695.9,286047001.9,P
1691668715.8,286046999.7,N
1691668735.6,286047000.4,N
1691668755.4,286047001.2,N
1691668775.3,286046998.1,N
1691668795.1,286046999.6,N
